CW8429 Weather Reports


Display with metric or nautical units.
time (UTC)temp
F
wind
direction
speed
MPH
gust
MPH
rain 1hr
in
rain 24hr
in
rain mn
in
humidity
%
barometer
mb
20260902045627 63 90 7.0 10.0 0.00 0.00 0.00 59 1015.5
20260902044618 64 141 4.0 14.0 0.00 0.00 0.00 53 1015.9
20260902043613 63 135 4.0 7.0 0.00 0.00 0.00 55 1015.5
20260902042624 63 144 4.0 5.0 0.00 0.00 0.00 55 1015.4
20260902041615 64 245 0.0 7.0 0.00 0.00 0.00 54 1015.4
20260902040625 64 103 5.0 11.0 0.00 0.00 0.00 52 1015.3
20260902035614 63 66 8.0 11.0 0.00 0.00 0.00 54 1015.3
20260902034624 63 109 7.0 10.0 0.00 0.00 0.00 56 1015.3
20260902033615 62 92 5.0 9.0 0.00 0.00 0.00 58 1015.5
20260902032648 63 115 5.0 7.0 0.00 0.00 0.00 56 1015.5
20260902031622 65 160 4.0 11.0 0.00 0.00 0.00 49 1015.3
20260902030614 67 189 4.0 7.0 0.00 0.00 0.00 45 1014.9
20260902025616 66 156 3.0 9.0 0.00 0.00 0.00 45 1014.8
20260902024626 66 158 4.0 7.0 0.00 0.00 0.00 45 1014.7
20260902023620 67 87 4.0 8.0 0.00 0.00 0.00 46 1014.6
20260902022630 67 122 5.0 7.0 0.00 0.00 0.00 47 1014.6
20260902021637 68 130 1.0 7.0 0.00 0.00 0.00 45 1014.7
20260902020646 68 156 0.0 3.0 0.00 0.00 0.00 48 1014.7
20260902015625 69 156 0.0 0.0 0.00 0.00 0.00 48 1014.7
20260902014619 70 156 0.0 0.0 0.00 0.00 0.00 48 1014.6
20260902013629 70 156 0.0 0.0 0.00 0.00 0.00 45 1014.6
20260902012618 71 156 0.0 1.0 0.00 0.00 0.00 43 1014.7
20260902011613 72 156 0.0 6.0 0.00 0.00 0.00 42 1014.6
20260902010623 72 140 2.0 10.0 0.00 0.00 0.00 40 1014.7
20260902005626 72 96 5.0 10.0 0.00 0.00 0.00 39 1014.7
20260902004616 72 269 2.0 10.0 0.00 0.00 0.00 40 1014.9
20260902003630 73 75 4.0 8.0 0.00 0.00 0.00 39 1014.9
20260902002620 74 130 4.0 8.0 0.00 0.00 0.00 37 1014.9
20260902001629 75 204 4.0 11.0 0.00 0.00 0.00 35 1014.7
20260902000620 75 186 4.0 11.0 0.00 0.00 0.00 34 1014.8
20260901235628 74 144 4.0 7.0 0.00 0.03 0.00 36 1014.8
20260901234617 74 271 2.0 9.0 0.00 0.03 0.00 38 1014.9
20260901233627 74 317 3.0 7.0 0.00 0.03 0.00 37 1014.9
20260901232618 74 211 2.0 9.0 0.00 0.03 0.00 37 1014.9
20260901231614 76 130 4.0 11.0 0.00 0.03 0.00 34 1015.0
20260901230624 76 178 7.0 16.0 0.00 0.03 0.00 34 1015.1
20260901225628 75 101 5.0 16.0 0.00 0.21 0.00 35 1015.3
20260901224619 76 137 7.0 14.0 0.00 0.21 0.00 34 1015.2
20260901223615 75 28 5.0 10.0 0.00 0.21 0.00 38 1015.4
20260901222624 74 5 2.0 9.0 0.00 0.21 0.00 42 1015.4
20260901221614 74 139 5.0 9.0 0.00 0.21 0.00 41 1015.6
20260901220645 74 195 3.0 10.0 0.00 0.21 0.00 40 1015.9
20260901215629 74 160 5.0 13.0 0.00 0.21 0.00 40 1016.0
20260901214618 73 157 5.0 14.0 0.00 0.21 0.00 38 1016.3
20260901213628 73 188 5.0 14.0 0.00 0.21 0.00 40 1016.1
20260901212622 74 107 4.0 9.0 0.00 0.21 0.00 40 1016.1
20260901211651 75 12 6.0 15.0 0.00 0.21 0.00 36 1016.3
20260901210620 74 208 5.0 10.0 0.00 0.21 0.00 40 1016.5
20260901205621 74 101 6.0 11.0 0.00 0.21 0.00 42 1016.6
20260901204614 74 158 6.0 10.0 0.00 0.21 0.00 41 1016.7
20260901203646 75 123 7.0 11.0 0.00 0.21 0.00 40 1016.8
20260901202615 74 306 4.0 14.0 0.00 0.21 0.00 43 1016.9
20260901201646 75 120 5.0 11.0 0.00 0.21 0.00 40 1016.9
20260901200615 75 350 3.0 10.0 0.00 0.21 0.00 39 1016.8
20260901195622 75 116 5.0 10.0 0.00 0.21 0.00 37 1016.9
20260901194614 75 169 3.0 13.0 0.00 0.21 0.00 40 1016.9
20260901193625 74 169 4.0 9.0 0.00 0.21 0.00 41 1017.0
20260901192637 74 294 4.0 9.0 0.00 0.21 0.00 38 1017.1
20260901191631 75 81 6.0 9.0 0.00 0.21 0.00 37 1017.1
20260901190643 74 182 4.0 6.0 0.00 0.21 0.00 40 1017.2
20260901185626 74 299 4.0 12.0 0.00 0.21 0.00 43 1017.5
20260901184617 73 139 7.0 21.0 0.00 0.21 0.00 43 1017.6
20260901183613 72 236 2.0 11.0 0.00 0.21 0.00 43 1017.7
20260901182623 72 239 3.0 9.0 0.00 0.21 0.00 44 1017.9
20260901181614 70 186 2.0 6.0 0.00 0.21 0.00 47 1018.1
20260901180631 69 217 2.0 7.0 0.00 0.21 0.00 47 1018.2
20260901175617 69 146 4.0 9.0 0.00 0.21 0.00 47 1018.2
20260901174647 70 172 4.0 8.0 0.00 0.21 0.00 45 1018.4
20260901173617 70 325 3.0 9.0 0.00 0.21 0.00 47 1018.3
20260901172627 70 168 6.0 10.0 0.00 0.21 0.00 45 1018.4
20260901171620 69 231 3.0 12.0 0.00 0.21 0.00 48 1018.4
20260901170630 69 82 4.0 8.0 0.00 0.21 0.00 47 1018.4
20260901165612 68 183 5.0 10.0 0.00 0.21 0.00 47 1018.4
20260901164622 67 228 3.0 11.0 0.00 0.21 0.00 49 1018.4
20260901163615 67 277 3.0 11.0 0.00 0.21 0.00 49 1018.4
20260901162624 66 146 5.0 9.0 0.00 0.21 0.00 50 1018.4
20260901161635 66 195 2.0 7.0 0.00 0.21 0.00 52 1018.5
20260901160624 65 185 3.0 9.0 0.00 0.21 0.00 58 1018.6
20260901155629 64 177 0.0 7.0 0.00 0.21 0.00 57 1018.6
20260901154619 64 55 4.0 6.0 0.00 0.21 0.00 61 1018.6
20260901153629 64 202 1.0 4.0 0.00 0.21 0.00 65 1018.6
20260901152618 65 145 2.0 3.0 0.00 0.21 0.00 65 1018.8
20260901151631 64 145 0.0 3.0 0.00 0.21 0.00 67 1018.6
20260901150621 63 143 0.0 0.0 0.00 0.21 0.00 68 1018.7
20260901145623 61 143 0.0 1.0 0.00 0.21 0.00 69 1018.8
20260901144634 59 143 0.0 0.0 0.00 0.21 0.00 73 1018.8
20260901143627 57 143 0.0 0.0 0.00 0.21 0.00 77 1018.8
20260901142618 55 143 0.0 3.0 0.00 0.21 0.00 79 1018.7
20260901141628 55 143 3.0 4.0 0.00 0.21 0.00 78 1018.6
20260901140640 55 143 4.0 7.0 0.00 0.21 0.00 78 1018.7
20260901135627 55 126 4.0 7.0 0.00 0.21 0.00 77 1018.6
20260901134638 55 121 7.0 9.0 0.00 0.21 0.00 77 1018.4
20260901133628 55 126 5.0 8.0 0.00 0.21 0.00 77 1018.3
20260901132640 55 146 5.0 8.0 0.00 0.21 0.00 77 1018.2
20260901131614 55 134 4.0 7.0 0.00 0.21 0.00 76 1018.3
20260901130625 55 146 4.0 7.0 0.00 0.21 0.00 76 1018.4
20260901125628 55 132 4.0 7.0 0.00 0.21 0.00 77 1018.2
20260901124641 55 146 4.0 7.0 0.00 0.21 0.00 77 1018.2
20260901123615 55 137 4.0 7.0 0.00 0.21 0.00 77 1018.1
20260901122626 56 167 5.0 6.0 0.00 0.21 0.00 77 1018.2
20260901121617 56 184 3.0 5.0 0.00 0.21 0.00 78 1018.1
20260901120629 56 188 0.0 0.0 0.00 0.21 0.00 78 1018.1
20260901115617 57 188 0.0 0.0 0.00 0.21 0.00 76 1018.0
20260901114628 57 188 0.0 0.0 0.00 0.21 0.00 76 1018.0
20260901113639 57 188 0.0 3.0 0.00 0.21 0.00 75 1018.0
20260901112629 57 188 3.0 4.0 0.00 0.21 0.00 74 1018.0
20260901111644 58 188 2.0 4.0 0.00 0.21 0.00 74 1018.0
20260901110614 58 188 3.0 5.0 0.00 0.21 0.00 72 1017.8
20260901105639 58 194 4.0 5.0 0.00 0.21 0.00 72 1018.0
20260901104629 59 187 3.0 6.0 0.00 0.21 0.00 71 1017.9
20260901103625 59 144 3.0 5.0 0.00 0.21 0.00 70 1018.0
20260901102615 58 144 3.0 5.0 0.00 0.21 0.00 72 1017.9
20260901101645 58 144 1.0 5.0 0.00 0.21 0.00 72 1017.9
20260901100615 58 144 4.0 7.0 0.00 0.21 0.00 72 1017.9
20260901095637 58 138 5.0 8.0 0.00 0.21 0.00 73 1017.9
20260901094630 58 115 7.0 9.0 0.00 0.21 0.00 72 1017.8
20260901093620 58 63 5.0 9.0 0.00 0.21 0.00 71 1017.8
20260901092649 58 175 4.0 8.0 0.00 0.21 0.00 72 1018.0
20260901091638 59 122 3.0 9.0 0.00 0.21 0.00 72 1017.9
20260901090631 58 133 1.0 3.0 0.00 0.21 0.00 72 1018.0
20260901085634 59 132 0.0 4.0 0.00 0.21 0.00 70 1017.9
20260901084622 59 131 2.0 5.0 0.00 0.21 0.00 70 1017.7
20260901083631 59 132 3.0 5.0 0.00 0.21 0.00 69 1017.7
20260901082625 59 126 0.0 3.0 0.00 0.21 0.00 70 1017.7
20260901081615 59 124 2.0 7.0 0.00 0.21 0.00 68 1017.7
20260901080624 60 163 4.0 6.0 0.00 0.21 0.00 67 1017.8
20260901075625 60 168 3.0 6.0 0.00 0.21 0.00 64 1018.0
20260901074619 61 168 0.0 3.0 0.00 0.21 0.00 62 1017.9
20260901073629 61 168 2.0 6.0 0.00 0.21 0.00 62 1017.9
20260901072620 61 155 5.0 10.0 0.00 0.21 0.00 61 1017.9
20260901071630 61 163 7.0 13.0 0.00 0.21 0.00 60 1017.9
20260901070645 61 150 7.0 13.0 0.00 0.21 0.00 61 1017.8
20260901065626 60 154 7.0 8.0 0.00 0.21 0.00 62 1017.7
20260901064617 59 144 5.0 8.0 0.00 0.21 0.00 67 1017.8
20260901063626 59 194 1.0 4.0 0.00 0.21 0.00 70 1017.8
20260901062622 59 194 3.0 5.0 0.00 0.21 0.00 71 1017.7
20260901061631 60 196 3.0 4.0 0.00 0.21 0.00 68 1017.9
20260901060631 60 157 3.0 8.0 0.00 0.21 0.00 69 1018.1
20260901055614 60 190 3.0 4.0 0.00 0.21 0.21 69 1018.2
20260901054625 60 290 0.0 3.0 0.00 0.21 0.21 67 1018.4
20260901053620 61 290 2.0 7.0 0.00 0.21 0.21 67 1018.5
20260901052631 62 169 6.0 16.0 0.00 0.21 0.21 60 1018.5
20260901051622 60 48 7.0 11.0 0.00 0.21 0.21 66 1018.4
20260901050618 60 111 10.0 15.0 0.00 0.21 0.21 66 1018.8